EW7481 Weather Reports


time (UTC)temp
C
wind
direction
speed
KPH
gust
KPH
rain 1hr
cm
rain 24hr
cm
rain mn
cm
humidity
%
barometer
mb
20260505034611 17 130 0.0 4.8 0.00 0.00 0.00 39 1007.2
20260505033015 17 42 0.0 6.4 0.00 0.00 0.00 39 1006.9
20260505031511 17 345 0.0 1.6 0.00 0.00 0.00 40 1006.7
20260505030010 17 338 0.0 1.6 0.00 0.00 0.00 40 1006.5
20260505024531 18 326 0.0 1.6 0.00 0.00 0.00 38 1006.4
20260505023009 19 295 0.0 1.6 0.00 0.00 0.00 36 1006.1
20260505021508 20 326 0.0 6.4 0.00 0.00 0.00 35 1005.9
20260505020107 20 6 0.0 12.9 0.00 0.00 0.00 34 1005.9
20260505014508 21 8 0.0 11.3 0.00 0.00 0.00 33 1005.7
20260505013017 21 203 1.6 12.9 0.00 0.00 0.00 32 1005.6
20260505011505 22 299 1.6 8.0 0.00 0.00 0.00 32 1005.6
20260505010006 22 77 0.0 9.7 0.00 0.00 0.00 32 1005.4
20260505004505 22 326 0.0 8.0 0.00 0.00 0.00 31 1005.4
20260505003004 23 108 3.2 9.7 0.00 0.00 0.00 31 1005.4
20260505001504 23 290 1.6 8.0 0.00 0.00 0.00 31 1005.4
20260505000005 23 344 1.6 9.7 0.00 0.00 0.00 31 1005.4
20260504234503 23 328 0.0 6.4 0.00 0.00 0.00 33 1005.4
20260504233001 23 316 3.2 8.0 0.00 0.00 0.00 32 1005.4
20260504231605 23 318 1.6 16.1 0.00 0.00 0.00 31 1005.5
20260504230100 24 134 0.0 11.3 0.00 0.00 0.00 30 1005.4
20260504224600 25 250 0.0 8.0 0.00 0.00 0.00 32 1005.4
20260504223058 25 329 0.0 9.7 0.00 0.00 0.00 29 1005.5
20260504221602 24 175 1.6 8.0 0.00 0.00 0.00 28 1005.5
20260504220054 24 288 0.0 8.0 0.00 0.00 0.00 33 1005.7
20260504214555 25 148 1.6 8.0 0.00 0.00 0.00 29 1005.7
20260504213052 25 322 1.6 8.0 0.00 0.00 0.00 32 1005.9
20260504211552 25 94 0.0 6.4 0.00 0.00 0.00 30 1006.0
20260504210105 24 123 0.0 4.8 0.00 0.00 0.00 28 1006.0
20260504204559 24 162 0.0 6.4 0.00 0.00 0.00 30 1006.0
20260504203049 23 314 0.0 6.4 0.00 0.00 0.00 29 1006.2
20260504201549 24 94 0.0 4.8 0.00 0.00 0.00 32 1006.3
20260504200042 24 322 0.0 4.8 0.00 0.00 0.00 32 1006.3
20260504194600 23 196 1.6 9.7 0.00 0.00 0.00 30 1006.5
20260504193038 23 318 0.0 9.7 0.00 0.00 0.00 35 1006.4
20260504191545 23 204 1.6 9.7 0.00 0.00 0.00 32 1006.7
20260504190043 22 127 0.0 8.0 0.00 0.00 0.00 37 1006.8
20260504184538 22 127 0.0 3.2 0.00 0.00 0.00 34 1006.8
20260504183030 21 82 0.0 6.4 0.00 0.00 0.00 37 1006.9
20260504181525 21 125 0.0 3.2 0.00 0.00 0.00 37 1007.2
20260504180024 21 333 0.0 4.8 0.00 0.00 0.00 40 1007.3
20260504174520 20 119 0.0 8.0 0.00 0.00 0.00 37 1007.4
20260504173020 20 158 1.6 6.4 0.00 0.00 0.00 37 1007.4
20260504171513 19 153 0.0 3.2 0.00 0.00 0.00 42 1007.5
20260504081548 7 72 0.0 0.0 0.00 0.00 0.00 76 1008.1
20260504044533 12 143 0.0 1.6 0.00 0.00 0.00 54 1008.6
20260504043033 12 226 0.0 0.0 0.00 0.00 0.00 52 1008.5
20260504041632 13 226 0.0 0.0 0.00 0.00 0.00 49 1008.4
20260504040034 13 226 0.0 0.0 0.00 0.00 0.00 46 1008.3